Regional Weather Roundup
Issued by NWS State College, PA

Home | Current Version | Previous Version | Text Only | Print | Product List | Glossary On
Versions: 1 2 3 4 5 6 7 8 9 10 11 12 13 14 15 16 17 18 19 20 21 22 23 24 25 26 27 28 29 30 31 32 33 34 35 36 37 38 39 40 41 42 43 44 45 46 47 48 49 50
000
ASUS41 KCTP 010703
RWRCTP

REGIONAL WEATHER ROUNDUP
NATIONAL WEATHER SERVICE STATE COLLEGE PA
200 AM EST SUN MAR 01 2015

Note: "fair" indicates few or no clouds below 12,000 feet with no
significant weather and/or obstructions to visibility.

* = STATION THAT DOES NOT REPORT PRECIPITATION /E.G. RAIN...SNOW...ETC/
    THUNDER OR FOG.

PAZ002>004-007>009-013>016-020>023-029>032-010800-
WESTERN PENNSYLVANIA

CITY           SKY/WX    TMP DP  RH WIND       PRES   REMARKS
ERIE           CLOUDY    18   3  52 S6        30.53S WCI  10
MEADVILLE      LGT SNOW  17   9  70 CALM      30.46F
FRANKLIN*      CLOUDY    18   7  62 SE6       30.48F WCI   9
NEW CASTLE     LGT SNOW  16  12  84 CALM      30.50F FOG
BEAVER COUNTY  NOT AVBL
BUTLER*        CLOUDY    21   3  45 NE6       30.50F WCI  14
PITTSBURGH INT CLOUDY    22   5  48 E3        30.48F
PITTSBURGH     CLOUDY    23   1  38 E6        30.47F
INDIANA*       CLOUDY    25   7  46 SE8       30.53S
LATROBE        CLOUDY    25  14  63 CALM      30.50F
WASHINGTON CO* CLOUDY    21  12  68 CALM      30.49S
$$

PAZ004>006-010>012-017>019-024>028-033>037-041-042-045-046-049>053-010800-
CENTRAL PENNSYLVANIA

CITY           SKY/WX    TMP DP  RH WIND       PRES   REMARKS
BRADFORD       CLOUDY    17  -3  41 S5        30.45S WCI  10
DUBOIS         CLOUDY    19   0  43 SE7       30.47S WCI  10
CLEARFIELD     CLOUDY    15  -2  46 NE7       30.52F WCI   5
JOHNSTOWN      CLOUDY    19   4  51 S9        30.45S WCI   8
ALTOONA        CLOUDY    20   4  50 SW5       30.57R WCI  13
STATE COLLEGE  CLOUDY    17   4  57 CALM      30.57F
WILLIAMSPORT   MOCLDY    11   0  61 E5        30.65F WCI   3
SELINSGROVE    MOCLDY    12   6  77 CALM      30.66F
FT INDIANTOWN  MOCLDY     9   2  71 CALM      30.68F
CAPITAL CITY   MOCLDY    18   7  62 SE5       30.69F WCI  11
HARRISBURG     CLOUDY    18   8  65 E5        30.69F WCI  11
YORK           PTCLDY    21   3  45 CALM      30.67F
$$

PAZ038>040-043-044-047-048-054-055-060>062-067>071-010800-
EASTERN PENNSYLVANIA

CITY           SKY/WX    TMP DP  RH WIND       PRES   REMARKS
SCRANTON       CLEAR     10  -3  55 E7        30.63S WCI  -1
MOUNT POCONO   CLEAR      1  -6  72 CALM      30.56R
ALLENTOWN      CLEAR      7  -1  70 CALM      30.70R
QUAKERTOWN*    MOSUNNY    5   0  78 MISG      30.70R
READING        PTCLDY    12   5  73 CALM      30.69F
LANCASTER      PTCLDY    13   6  74 E3        30.68F HAZE
COATESVILLE    MOSUNNY   21   5  49 SW5       30.68F WCI  15
POTTSTOWN      PTCLDY    12   3  67 CALM      30.72R
BLUE BELL      CLEAR     18  10  73 CALM      30.70R
DOYLESTOWN     CLEAR     12   3  67 CALM      30.70R
WILLOW GROVE   NOT AVBL
NORTH PHILA    CLEAR     20   7  57 CALM      30.74R
PHILADELPHIA   PTCLDY    22   9  57 SW5       30.74R
$$


USA.gov is the U.S. government's official web portal to all federal, state and local government web resources and services.